Location: Banff
(51.1667°N, 115.5667°W)
Time: 07:17:35
(UTC+00:00)

S-56A Canister/Altair - Pass Details

Date: 26 November 2020
Orbit: 633 x 2499 km, 38.9° (Epoch: 21 January)

Event Time Altitude Azimuth Distance (km) Brightness Sun altitude
Rises 03:14:37 0° 211° (SSW) 5,347 12.1 -32.6°
Reaches altitude 10° 03:19:45 10° 197° (SSW) 3,983 11.2 -33.4°
Enters shadow 03:23:47 17° 175° (S) 3,121 10.5 -34.0°
Maximum altitude 03:26:04 19° 158° (SSE) 2,835 - -34.3°
Drops below altitude 10° 03:31:04 10° 116° (ESE) 3,045 - -35.1°
Sets 03:34:18 0° 98° (E) 3,728 - -35.6°
